Waarnemingen

Advertentie
Mijn weer
Mont-De-Marsan, Frankrijk (7607): temperatuur & dauwpunt: 22.06.2017 05:00:00 - 28.06.2017 05:00:00 (CEST)Mont-De-Marsan, Frankrijk (7607): temperatuur 5cm: 22.06.2017 05:00:00 - 28.06.2017 05:00:00 (CEST)Mont-De-Marsan, Frankrijk (7607): temperatuur -20cm & temperatuur -100cm: 22.06.2017 05:00:00 - 28.06.2017 05:00:00 (CEST)Mont-De-Marsan, Frankrijk (7607): windsnelheid & windstoten: 22.06.2017 05:00:00 - 28.06.2017 05:00:00 (CEST)Mont-De-Marsan, Frankrijk (7607): windrichting: 22.06.2017 05:00:00 - 28.06.2017 05:00:00 (CEST)Mont-De-Marsan, Frankrijk (7607): luchtdruk: 22.06.2017 05:00:00 - 28.06.2017 05:00:00 (CEST)Mont-De-Marsan, Frankrijk (7607): zicht: 22.06.2017 05:00:00 - 28.06.2017 05:00:00 (CEST)Mont-De-Marsan, Frankrijk (7607): Zonneschijnduur: 22.06.2017 05:00:00 - 28.06.2017 05:00:00 (CEST)Mont-De-Marsan, Frankrijk (7607): neerslag: 22.06.2017 05:00:00 - 28.06.2017 05:00:00 (CEST)
Datum & Tijd tt [°C] td [°C] tt 5cm [°C] tt -20cm [°C] tt -100cm [°C] ff [km/u] ff [kn] fx [km/u] fx [kn] dd ppp [hPa] vv [km] sd [min] rr [mm]
28.06.2017 05:00:00 17,0 15,9 16,5 23,5 20,9 13 7 27 15 ZW 1006,5 10 0 2,4
28.06.2017 04:00:00 17,3 15,5 16,5 23,6 20,9 11 6 25 13 WZW 1006,9 47 0 0,0
28.06.2017 03:00:00 17,6 15,9 16,5 23,7 20,9 11 6 24 13 ZW 1007,2 37 0 0,2
28.06.2017 02:00:00 17,5 15,7 16,4 23,9 20,9 8 5 17 9 ZZW 1008,1 60 0 0,0
28.06.2017 01:00:00 17,5 14,9 16,7 24,0 20,8 9 5 18 10 ZZW 1008,7 60 0 0,0
28.06.2017 00:00:00 18,5 15,4 18,0 24,0 20,9 10 5 21 11 ZW 1009,3 60 0 0,0
27.06.2017 23:00:00 19,5 15,2 18,3 24,1 20,8 12 7 21 11 WZW 1009,4 60 0 0,0
27.06.2017 22:00:00 19,3 14,5 18,2 24,2 20,8 18 10 29 15 W 1008,7 60 19 0,0
27.06.2017 21:00:00 20,7 15,0 20,6 24,2 20,9 16 8 36 20 WNW 1008,1 56 55 0,0
27.06.2017 20:00:00 22,6 14,9 22,5 24,2 20,9 22 12 37 20 W 1007,6 60 47 0,0
27.06.2017 19:00:00 22,5 16,1 19,8 24,1 20,8 22 12 35 19 W 1007,0 60 15 0,0
27.06.2017 18:00:00 21,4 17,6 19,6 24,0 20,8 18 10 36 19 W 1008,1 39 0 0,4
27.06.2017 17:00:00 22,8 17,3 23,0 24,0 20,9 24 13 38 21 WNW 1006,9 59 4 0,0
27.06.2017 16:00:00 24,6 18,1 26,1 23,8 20,8 24 13 35 19 WNW 1006,9 60 15 0,0
27.06.2017 15:00:00 25,0 17,5 26,5 23,8 20,8 16 8 26 14 WNW 1007,1 60 8 0,0
27.06.2017 14:00:00 25,1 17,6 28,7 23,7 20,8 6 3 15 8 Z 1007,1 60 3 0,0
27.06.2017 13:00:00 24,4 17,1 28,0 23,7 20,9 9 5 16 9 ZW 1007,8 60 0 0,0
27.06.2017 12:00:00 23,9 17,6 26,4 23,7 20,9 5 3 12 7 O 1008,1 34 4 0,0
27.06.2017 11:00:00 22,8 17,7 25,6 23,8 20,8 3 1 10 5 Z 1008,5 52 10 0,0
27.06.2017 10:00:00 21,6 18,2 23,2 23,9 20,8 3 2 11 6 ZW 1009,0 19 2 0,0
27.06.2017 09:00:00 20,7 18,1 21,7 24,0 20,8 5 3 12 6 ZZO 1009,2 18 6 0,0
27.06.2017 08:00:00 19,7 17,7 18,8 24,1 20,8 4 2 9 5 ZZO 1009,4 20 2 0,0
27.06.2017 07:00:00 19,1 17,4 17,0 24,2 20,8 4 2 9 5 Z 1009,7 13 4 0,0
27.06.2017 06:00:00 18,4 16,9 16,9 24,3 20,8 0 0 6 3 N 1009,9 8 0 0,0
27.06.2017 05:00:00 18,9 17,4 17,8 24,4 20,8 0 0 10 6 N 1010,0 10 0 0,0
27.06.2017 04:00:00 19,3 17,8 18,0 24,6 20,8 5 3 15 8 ZW 1010,5 11 0 0,0
27.06.2017 03:00:00 20,2 17,8 19,7 24,6 20,8 10 5 18 10 ZW 1010,7 19 0 0,0
27.06.2017 02:00:00 20,5 17,9 19,7 24,7 20,8 10 6 18 10 ZZW 1011,1 43 0 0,0
27.06.2017 01:00:00 20,6 17,8 19,7 24,8 20,8 9 5 16 9 ZZW 1011,6 46 0 0,0
27.06.2017 00:00:00 21,4 17,8 20,4 24,8 20,8 10 5 20 11 ZW 1011,7 60 0 0,0
26.06.2017 23:00:00 22,1 17,9 21,4 24,8 20,8 13 7 23 13 WZW 1011,5 60 0 0,0
26.06.2017 22:00:00 23,0 17,9 22,6 24,8 20,8 11 6 30 16 WZW 1011,2 15 3 0,0
26.06.2017 21:00:00 24,4 17,9 24,0 24,7 20,8 18 10 34 19 WZW 1010,7 39 37 0,0
26.06.2017 20:00:00 26,5 16,7 26,6 24,6 20,8 19 10 34 18 W 1010,2 55 26 0,0
26.06.2017 19:00:00 27,4 17,0 29,4 24,4 20,8 18 10 31 17 WNW 1009,7 60 50 0,0
26.06.2017 18:00:00 26,4 19,0 28,4 24,2 20,8 8 4 27 15 NNW 1009,9 60 45 0,0
26.06.2017 17:00:00 24,4 17,9 25,7 24,1 20,8 17 9 37 20 NNW 1010,0 60 22 0,0
26.06.2017 16:00:00 25,7 16,8 25,8 23,9 20,8 20 11 42 23 NW 1009,4 60 12 0,0
26.06.2017 15:00:00 29,0 15,9 31,2 23,8 20,8 17 9 31 17 WNW 1009,1 8 23 0,0
26.06.2017 14:00:00 28,7 17,2 32,4 23,7 20,8 16 9 34 18 W 1009,4 4,1 45 0,0
26.06.2017 13:00:00 27,0 17,5 32,3 23,7 20,8 11 6 18 10 W 1009,7 53 30 0,0
26.06.2017 12:00:00 25,2 19,1 25,2 23,7 20,8 5 3 13 7 NNO 1009,8 29 31 0,0
26.06.2017 11:00:00 22,8 18,8 23,9 23,8 20,8 3 2 13 7 ZZW 1010,0 41 0 0,0
26.06.2017 10:00:00 22,1 19,1 22,7 23,9 20,8 10 5 15 8 NO 1008,9 20 2 0,0
26.06.2017 09:00:00 20,4 18,2 19,2 24,0 20,8 10 5 14 7 NO 1009,2 20 3 0,0
26.06.2017 08:00:00 19,3 17,4 18,4 24,1 20,8 3 1 10 5 ZO 1010,7 28 0 0,0
26.06.2017 07:00:00 18,8 17,6 17,8 24,2 20,8 5 3 12 6 NNO 1010,3 12 4 0,0
26.06.2017 06:00:00 20,0 17,2 18,1 24,3 20,8 8 4 16 9 WZW 1011,3 46 0 0,2
26.06.2017 05:00:00 19,9 18,2 19,1 24,4 20,8 5 3 9 5 O 1010,9 16 0 0,0
26.06.2017 04:00:00 20,6 18,5 19,4 24,5 20,8 0 0 6 3 N 1011,9 19 0 0,0
26.06.2017 03:00:00 21,8 18,4 19,8 24,6 20,8 0 0 5 3 N 1012,7 24 0 0,2
26.06.2017 02:00:00 22,1 17,2 20,5 24,6 20,8 3 2 9 5 NW 1012,5 49 0 0,0
26.06.2017 01:00:00 23,6 16,9 20,8 24,7 20,8 6 4 11 6 ZZW 1013,3 53 0 0,0
26.06.2017 00:00:00 23,3 16,3 20,7 24,7 20,8 0 0 3 2 N 1013,7 60 0 0,0
25.06.2017 23:00:00 23,9 15,7 21,0 24,6 20,8 0 0 10 5 N 1014,1 59 0 0,0
25.06.2017 22:00:00 24,8 15,7 22,2 24,6 20,9 2 1 9 5 NW 1014,4 60 0 0,0
25.06.2017 21:00:00 26,3 15,4 25,6 24,4 20,9 6 4 14 7 ONO 1013,5 60 0 0,0
25.06.2017 20:00:00 27,3 14,3 27,8 24,2 20,9 8 4 17 9 ZO 1014,4 60 37 0,0
25.06.2017 19:00:00 27,4 15,1 29,5 23,9 20,9 10 6 19 10 OZO 1014,5 60 25 0,0
25.06.2017 18:00:00 27,7 14,7 30,8 23,5 20,9 9 5 22 12 ZO 1015,3 60 48 0,0
25.06.2017 17:00:00 27,8 14,8 34,4 23,2 20,9 7 4 22 12 ZO 1015,8 18 60 0,0
25.06.2017 16:00:00 27,5 14,8 36,1 22,9 20,9 10 6 28 15 O 1016,7 19 60 0,0
25.06.2017 15:00:00 26,9 15,0 34,9 22,6 20,9 8 4 25 13 ZZO 1017,6 17 60 0,0
25.06.2017 14:00:00 25,7 13,9 31,5 22,4 20,9 7 4 22 12 O 1018,4 15 52 0,0
25.06.2017 13:00:00 24,9 14,1 35,4 22,3 20,9 11 6 19 10 O 1019,1 13 58 0,0
25.06.2017 12:00:00 23,8 13,6 27,8 22,3 20,9 10 5 18 10 ONO 1019,6 19 36 0,0
25.06.2017 11:00:00 22,8 14,1 29,3 22,4 20,9 10 5 18 10 NO 1020,1 18 58 0,0
25.06.2017 10:00:00 21,6 14,5 27,0 22,5 20,9 6 4 12 6 ONO 1020,7 60 58 0,0
25.06.2017 09:00:00 19,5 15,4 18,7 22,6 20,9 4 2 9 5 ZZO 1021,1 44 60 0,0
25.06.2017 08:00:00 15,6 13,8 10,3 22,8 20,9 2 1 12 6 OZO 1020,9 33 55 0,0
25.06.2017 07:00:00 11,8 10,5 8,3 23,0 20,9 2 1 4 2 ONO 1020,8 18 18 0,0
25.06.2017 06:00:00 12,1 11,2 8,3 23,1 20,9 3 1 6 3 ONO 1021,0 15 0 0,0
25.06.2017 05:00:00 12,9 12,1 8,3 23,3 20,9 0 0 7 4 N 1020,7 14 0 0,0
25.06.2017 04:00:00 13,4 12,5 8,7 23,4 20,9 0 0 3 2 N 1021,1 6 0 0,0
25.06.2017 03:00:00 15,3 14,3 9,8 23,6 20,9 2 1 5 3 WZW 1021,7 20 0 0,0
25.06.2017 02:00:00 15,9 14,1 11,4 23,7 20,9 3 2 6 4 WNW 1022,1 31 0 0,0
25.06.2017 01:00:00 16,7 14,3 13,0 23,8 20,9 6 3 11 6 W 1022,2 43 0 0,0
25.06.2017 00:00:00 17,4 14,7 15,4 23,8 20,9 8 5 13 7 W 1022,2 42 0 0,0
24.06.2017 23:00:00 18,6 14,9 16,7 23,8 20,9 9 5 12 6 W 1022,0 48 0 0,0
24.06.2017 22:00:00 20,1 14,7 18,4 23,8 20,9 9 5 16 8 W 1021,1 57 15 0,0
24.06.2017 21:00:00 21,9 15,0 21,6 23,8 21,0 9 5 13 7 WNW 1020,7 60 8 0,0
24.06.2017 20:00:00 22,6 14,4 22,5 23,7 20,9 9 5 22 12 WNW 1020,8 59 0 0,0
24.06.2017 19:00:00 23,3 14,3 23,7 23,6 20,9 14 8 21 12 WNW 1020,8 52 0 0,0
24.06.2017 18:00:00 23,6 14,6 24,8 23,5 20,9 7 4 16 9 NW 1020,7 60 1 0,0
24.06.2017 17:00:00 24,0 14,7 24,6 23,4 20,9 8 5 19 10 NW 1020,7 60 10 0,0
24.06.2017 16:00:00 22,9 14,2 23,9 23,4 20,9 9 5 16 9 NNW 1021,2 58 0 0,0
24.06.2017 15:00:00 22,9 13,9 24,8 23,3 20,9 9 5 16 9 NW 1021,4 60 0 0,0
24.06.2017 14:00:00 22,6 14,2 24,9 23,3 20,9 5 3 13 7 NNW 1021,7 56 5 0,0
24.06.2017 13:00:00 22,8 14,1 25,5 23,2 20,9 4 2 15 8 ZZO 1022,0 20 7 0,0
24.06.2017 12:00:00 21,6 13,0 25,3 23,3 20,9 5 3 12 6 ONO 1022,1 20 0 0,0
24.06.2017 11:00:00 20,3 14,2 22,4 23,3 20,9 7 4 12 7 NO 1022,5 53 0 0,0
24.06.2017 10:00:00 19,3 14,3 20,6 23,4 20,9 4 2 9 5 N 1022,9 45 0 0,0
24.06.2017 09:00:00 18,5 14,4 18,6 23,5 20,9 5 3 9 5 ONO 1022,8 60 0 0,0
24.06.2017 08:00:00 17,6 13,7 17,2 23,6 20,9 3 1 6 4 N 1022,9 46 0 0,0
24.06.2017 07:00:00 17,3 13,6 16,9 23,7 20,9 5 3 7 4 NO 1022,9 60 0 0,0
24.06.2017 06:00:00 17,3 13,8 16,9 23,8 20,9 3 1 7 4 O 1023,0 60 0 0,0
24.06.2017 05:00:00 17,6 13,9 17,2 23,9 20,9 4 2 8 4 N 1023,4 60 0 0,0
24.06.2017 04:00:00 18,0 14,1 17,4 24,0 20,9 4 2 6 3 NNW 1024,1 60 0 0,0
24.06.2017 03:00:00 18,0 14,3 17,4 24,1 20,9 3 2 10 5 N 1024,1 60 0 0,0
24.06.2017 02:00:00 18,6 14,5 18,0 24,2 20,9 6 3 22 12 N 1024,3 58 0 0,0
24.06.2017 01:00:00 19,5 15,2 19,1 24,3 20,9 11 6 20 11 NNW 1024,3 47 0 0,0
24.06.2017 00:00:00 19,8 15,4 19,5 24,3 20,9 9 5 17 9 WNW 1024,6 53 0 0,0
23.06.2017 23:00:00 20,4 15,4 20,0 24,4 20,9 10 5 17 9 WNW 1024,4 47 0 0,0
23.06.2017 22:00:00 21,0 17,4 20,6 24,5 20,9 10 5 14 8 WNW 1023,7 46 0 0,0
23.06.2017 21:00:00 21,5 17,5 21,4 24,5 20,9 8 4 10 6 WNW 1023,4 55 0 0,0
23.06.2017 20:00:00 21,7 17,7 22,3 24,5 20,9 5 3 12 6 WNW 1022,9 54 0 0,0
23.06.2017 19:00:00 21,1 17,9 22,1 24,5 20,9 7 4 14 8 NW 1022,9 42 0 0,0
23.06.2017 18:00:00 20,8 18,2 21,3 24,5 20,9 8 4 21 11 NNW 1023,0 20 0 0,0
23.06.2017 17:00:00 21,3 18,3 21,7 24,5 20,9 15 8 25 14 WNW 1023,1 19 0 0,0
23.06.2017 16:00:00 23,3 18,0 25,4 24,4 20,9 11 6 19 11 NW 1022,7 60 0 0,0
23.06.2017 15:00:00 23,2 18,3 24,2 24,4 20,8 11 6 24 13 NW 1022,7 58 1 0,0
23.06.2017 14:00:00 22,7 18,2 24,2 24,4 20,9 15 8 23 12 W 1022,9 41 5 0,0
23.06.2017 13:00:00 22,1 18,5 20,9 24,5 20,8 15 8 24 13 W 1023,3 22 0 0,0
23.06.2017 12:00:00 20,5 19,0 20,5 24,6 20,8 11 6 18 10 W 1023,4 9 0 0,0
23.06.2017 11:00:00 20,4 19,4 20,5 24,7 20,8 9 5 16 8 W 1023,3 14 0 0,2
23.06.2017 10:00:00 20,1 19,3 19,6 24,8 20,8 9 5 16 9 W 1023,2 3,5 0 0,4
23.06.2017 09:00:00 19,6 18,8 19,5 24,9 20,8 10 6 18 10 WZW 1023,0 2,5 0 0,0
23.06.2017 08:00:00 19,4 18,6 19,3 25,0 20,8 9 5 16 9 WZW 1022,5 2,6 0 0,2
23.06.2017 07:00:00 19,4 18,6 19,1 25,2 20,8 9 5 16 9 WZW 1022,3 1,6 11 0,0
23.06.2017 06:00:00 19,5 18,3 19,1 25,3 20,8 9 5 16 9 WZW 1022,0 2,6 0 0,0
23.06.2017 05:00:00 19,7 17,8 19,6 25,5 20,8 10 5 17 9 WZW 1021,8 4,9 0 0,0
23.06.2017 04:00:00 19,7 17,8 19,7 25,6 20,8 9 5 23 12 WZW 1021,6 4,6 0 0,0
23.06.2017 03:00:00 19,9 17,7 19,8 25,7 20,8 11 6 23 12 WZW 1021,7 8 0 0,0
23.06.2017 02:00:00 20,1 17,5 20,0 25,8 20,8 14 8 23 13 W 1021,6 15 0 0,0
23.06.2017 01:00:00 20,5 17,3 20,4 25,9 20,8 11 6 24 13 WZW 1021,3 19 0 0,0
23.06.2017 00:00:00 20,6 17,6 20,1 26,0 20,8 16 8 30 16 W 1021,1 16 0 0,0
22.06.2017 23:00:00 21,2 17,8 21,2 26,0 20,7 22 12 32 17 W 1020,5 19 0 0,0
22.06.2017 22:00:00 21,6 17,6 21,6 26,0 20,7 19 10 33 18 W 1019,6 20 0 0,0
22.06.2017 21:00:00 22,5 17,8 22,5 25,9 20,8 22 12 34 18 W 1019,4 33 0 0,0
22.06.2017 20:00:00 23,0 18,1 23,6 25,8 20,7 22 12 34 18 W 1018,7 37 18 0,0
22.06.2017 19:00:00 25,5 18,4 28,0 25,6 20,7 25 13 38 20 W 1017,9 17 60 0,0
22.06.2017 18:00:00 27,4 18,9 30,9 25,3 20,7 22 12 37 20 W 1017,7 17 60 0,0
22.06.2017 17:00:00 29,3 19,9 34,3 25,1 20,7 21 12 31 17 W 1017,3 14 60 0,0
22.06.2017 16:00:00 30,3 20,5 36,1 24,9 20,7 16 8 32 17 WNW 1017,3 14 60 0,0
22.06.2017 15:00:00 30,3 20,5 36,2 24,7 20,7 12 7 27 15 W 1017,3 13 60 0,0
22.06.2017 14:00:00 28,9 20,6 35,8 24,6 20,7 12 6 26 14 W 1017,3 16 60 0,0
22.06.2017 13:00:00 27,1 20,4 29,8 24,6 20,7 11 6 31 17 W 1017,8 12 60 0,0
22.06.2017 12:00:00 24,9 19,9 27,5 24,7 20,7 13 7 27 14 W 1018,1 11 6 0,0
22.06.2017 11:00:00 24,2 19,9 24,8 24,8 20,7 12 7 21 11 WZW 1017,9 14 6 0,0
22.06.2017 10:00:00 22,9 20,1 23,2 24,9 20,7 11 6 24 13 W 1017,7 13 0 0,0
22.06.2017 09:00:00 22,1 20,0 22,0 25,0 20,6 16 9 27 15 WZW 1017,2 12 0 0,0
22.06.2017 08:00:00 22,0 19,5 20,5 25,2 20,7 13 7 24 13 WZW 1016,5 8 55 0,0
22.06.2017 07:00:00 21,1 18,7 14,8 25,4 20,6 9 5 16 9 WZW 1015,9 18 19 0,0
22.06.2017 06:00:00 18,5 16,3 14,7 25,6 20,6 0 0 5 3 N 1015,5 17 0 0,0
22.06.2017 05:00:00 19,2 16,6 14,9 25,8 20,6 0 0 6 3 N 1015,1 10 0 0,0

tt = temperatuur
td = dauwpunt
tt 5cm = temperatuur 5cm
tt -20cm = temperatuur -20cm
tt -100cm = temperatuur -100cm
ff = windsnelheid
fx = windstoten
dd = windrichting
ppp = luchtdruk
vv = zicht
sd = Zonneschijnduur
rr = neerslag

Weerstations in de omgeving